Location: Obersdorf
(47.4079°N, 10.2781°E)
Time: 19:12:49
(UTC+02:00)

Nauka - Pass Details

Date: 03 October 2021
Orbit: 417 x 423 km, 51.6° (Epoch: 24 October)

Event Time Altitude Azimuth Distance (km) Brightness Sun altitude
Rises 20:18:30 0° 292° (WNW) 2,366 ? -15.1°
Reaches altitude 10° 20:20:39 10° 286° (WNW) 1,501 ? -15.4°
Maximum altitude 20:23:51 42° 214° (SW) 610 ? -15.9°
Enters shadow 20:25:26 24° 157° (SSE) 907 ? -16.2°
